Погода в Роннебю

Швеция     56°12′30″N   15°16′53″E
темп.,
°C
ветер,
м/с
пор.,
м/с
влажн.,
%
обл.,
%
осадки,
мм/ч
давл.,
гПа
погр.,
м
14 мая, пт
пт1423:00+10св2472100 0.0 100465
02:00+9св2675100 0.0 1004112
05:00+8св2489100 0.0 100383
08:00+12в3667100 0.0 1003425
11:00+15вюв4547100 0.0 1004980
14:00+16юв4450100 0.0 10041232
17:00+13ююв3463100 0.0 1004559
20:00+10юз1281100 0.0 1004166
15 мая, сб
сб1523:00+9юз2390100 0.3 100496
02:00+8ююв1397100 1.6 1004133
05:00+8ююв3897100 3.3 1003356
08:00+8ю4998100 7.4 1003390
11:00+11ююз4790100 0.1 1003504
14:00+11ююз5783100 0.1 1004513
17:00+12юз466961 0.0 1004948
20:00+9ююз2683100 0.0 1004183
16 мая, вс
вс1623:00+7ююв229176 0.0 100448
02:00+7вюв259324 0.0 1004110
05:00+6в25977 0.0 1004112
08:00+12вюв2476100 0.0 1003277
11:00+10юв3691100 0.2 1003257
14:00+10юв3596100 1.2 1002348
17:00+11ю468863 0.3 1002665
20:00+9ююз259212 0.3 1002292
17 мая, пн
пн1723:00+6ю229712 0.0 100226
02:00+6юв239722 0.0 100253
05:00+6ю229830 0.0 100221
08:00+11ю248354 0.0 1002415
11:00+14ю456497 0.0 1002864
14:00+15ю45586 0.1 10031009
17:00+13ю45636 0.0 1003749
20:00+10ю248174 0.0 1003208
18 мая, вт
вт1823:00+7ююз129567 0.0 100321
02:00+7ю1196100 0.0 100311
05:00+7з0097100 0.0 100310
08:00+12ю127938 0.1 1003403
11:00+13ю337885 0.9 1004739
14:00+14ююз447258 1.8 1004867
17:00+11юз2493100 2.9 1005139
20:00+10зюз41087100 4.1 1006361